sat.trackr.live / text

‹ back to catalog

STARLINK-11267 [DTC]

NORAD 60994 · 2024-158E

PAYLOAD ACTIVE UNKNOWN

§ Identity

Operator
Country
US
Launch date
2024-09-05
Launch site
AFETR
Launch vehicle
Mass (kg)
RCS (m²)

Purposes: comms

External: N2YO · Heavens-Above · Gunter

§ Orbital elements

Epoch: 2026-05-24T17:31:50.933568Z

Period
91.74 min
Inclination
53.1595°
Eccentricity
0.0001143
Mean motion
15.69705478 rev/d
Perigee alt
359.0 km
Apogee alt
360.5 km
Semi-major
6,737.9 km
B*
1.4185e-6
RAAN
266.7109°
Arg perigee
79.3382°
Mean anomaly
280.7764°
Rev number
9,953

§ Raw data

STARLINK-11267 [DTC]1 60994U 24158E   26144.73045062 -.00000417  00000+0  14185-5 0  99982 60994  53.1595 266.7109 0001143  79.3382 280.7764 15.69705478 99532

JSON: /api/v1/satellites/60994 · /tle

For live sub-satellite position, see the globe view (requires WebGL).

§ Visibility from observer

Set your observer location to see the next 7 days of passes ≥ 10°. The values pass through the URL so the page stays shareable.

No JS? Fill the form by hand. The geolocation button needs JavaScript.